Location: Armagh
(54.3500°N, 6.6670°W)
Time: 07:10:45
(UTC+00:00)

ISS - Pass Details

Date: 14 December 2017
Orbit: 401 x 406 km, 51.6° (Epoch: 17 January)

Event Time Altitude Azimuth Distance (km) Brightness Sun altitude
Rises 17:38:31 0° 277° (W) 2,341 1.2 -12.8°
Reaches altitude 10° 17:40:52 10° 262° (W) 1,477 0.4 -13.1°
Maximum altitude 17:43:33 23° 208° (SSW) 924 -1.4 -13.4°
Drops below altitude 10° 17:46:13 10° 153° (SSE) 1,469 -1.1 -13.8°
Enters shadow 17:48:22 - 139° (SE) 2,257 -0.2 -14.1°
